,,Stat6,,Stat2,,Stat8,,Stat9,,Stat10,,Wind1,,Wind1,
time,status,PA1M_AVG,status,PR1M_SUM,status,RH1M_AVG,status,SR1M_AVG,status,TA1M_AVG,status,W1dAve1m,status,W1sAve1m,
2004-06-23, 00:00:00,VALID,921.144,VALID,0,VALID,96.4805,VALID,0.0169808,VALID,18.2245,VALID,126,VALID,0.423549,
2004-06-23, 00:01:00,VALID,921.134,VALID,0,VALID,94.9291,VALID,0,VALID,18.0761,VALID,64,VALID,0.590402,
2004-06-23, 00:02:00,VALID,921.124,VALID,0,VALID,96.3062,VALID,0,VALID,17.9827,VALID,37,VALID,0.865916,
2004-06-23, 00:03:00,VALID,921.118,VALID,0,VALID,97.6923,VALID,0.0339617,VALID,18.0821,VALID,23,VALID,0.709302,
2004-06-23, 00:04:00,VALID,921.115,VALID,0,VALID,97.3693,VALID,0.0339617,VALID,18.0823,VALID,26,VALID,0.427269,
2004-06-23, 00:05:00,VALID,921.115,VALID,0,VALID,97.986,VALID,0.0339617,VALID,18.157,VALID,17,VALID,0.532924,
2004-06-23, 00:06:00,VALID,921.121,VALID,0,VALID,98.1869,VALID,-0.0849042,VALID,18.2771,VALID,13,VALID,0.510603,
2004-06-23, 00:07:00,VALID,921.142,VALID,0,VALID,97.2777,VALID,-0.101885,VALID,18.2909,VALID,18,VALID,0.33305,
2004-06-23, 00:08:00,VALID,921.136,VALID,0,VALID,97.279,VALID,-0.0849042,VALID,18.2967,VALID,14,VALID,0.447674,
2004-06-23, 00:09:00,VALID,921.136,VALID,0,VALID,96.9878,VALID,-0.101885,VALID,18.3135,VALID,6,VALID,0.358259,
2004-06-23, 00:10:00,VALID,921.106,VALID,0,VALID,96.174,VALID,-0.118866,VALID,18.2425,VALID,6,VALID,0.196646,
2004-06-23, 00:11:00,VALID,921.049,VALID,0,VALID,95.397,VALID,-0.0849042,VALID,18.1194,VALID,6,VALID,0.410334,
2004-06-23, 00:12:00,VALID,921.022,VALID,0,VALID,96.071,VALID,-0.101885,VALID,18.026,VALID,14,VALID,0.63244,
2004-06-23, 00:13:00,VALID,920.987,VALID,0,VALID,97.6249,VALID,-0.118866,VALID,18.1005,VALID,32,VALID,0.919097,
2004-06-23, 00:14:00,VALID,920.979,VALID,0,VALID,97.9987,VALID,-0.0849042,VALID,18.2005,VALID,36,VALID,0.822266,
2004-06-23, 00:15:00,VALID,920.945,VALID,0,VALID,97.3502,VALID,-0.101885,VALID,18.2326,VALID,36,VALID,0.64707,
2004-06-23, 00:16:00,VALID,920.949,VALID,0,VALID,96.7335,VALID,-0.0849042,VALID,18.2201,VALID,36,VALID,0.406428,
2004-06-23, 00:17:00,VALID,920.946,VALID,0,VALID,96.5339,VALID,-0.101885,VALID,18.1945,VALID,36,VALID,0.124479,
2004-06-23, 00:18:00,VALID,920.942,VALID,0,VALID,96.7157,VALID,-0.0849042,VALID,18.2135,VALID,36,VALID,0,
2004-06-23, 00:19:00,VALID,920.97,VALID,0,VALID,96.6941,VALID,-0.101885,VALID,18.21,VALID,36,VALID,0.0207698,
2004-06-23, 00:20:00,VALID,920.993,VALID,0,VALID,96.6954,VALID,-0.0849042,VALID,18.2264,VALID,36,VALID,0.124273,
2004-06-23, 00:21:00,VALID,921.03,VALID,0,VALID,96.7055,VALID,0,VALID,18.2314,VALID,36,VALID,0.0327035,
2004-06-23, 00:22:00,VALID,921.02,VALID,0,VALID,96.6712,VALID,-0.0169808,VALID,18.302,VALID,326,VALID,0.489281,
2004-06-23, 00:23:00,VALID,921.017,VALID,0,VALID,96.628,VALID,0.0169808,VALID,18.4191,VALID,246,VALID,0.533067,
2004-06-23, 00:24:00,VALID,921.031,VALID,0,VALID,95.9464,VALID,0,VALID,18.4673,VALID,246,VALID,0.190476,
2004-06-23, 00:25:00,VALID,921.065,VALID,0,VALID,93.908,VALID,0,VALID,18.3536,VALID,246,VALID,0.097202,
2004-06-23, 00:26:00,VALID,921.106,VALID,0,VALID,94.3353,VALID,0,VALID,18.2732,VALID,246,VALID,0,
2004-06-23, 00:27:00,VALID,921.131,VALID,0,VALID,94.5514,VALID,-0.0169808,VALID,18.2257,VALID,246,VALID,0.078311,
2004-06-23, 00:28:00,VALID,921.126,VALID,0,VALID,94.9253,VALID,0,VALID,18.1994,VALID,246,VALID,0.120808,
2004-06-23, 00:29:00,VALID,921.108,VALID,0,VALID,94.8541,VALID,0.0169808,VALID,18.1893,VALID,246,VALID,0.000952744,
2004-06-23, 00:30:00,VALID,921.107,VALID,0,VALID,95.5725,VALID,0.0169808,VALID,18.1833,VALID,246,VALID,0,
2004-06-23, 00:31:00,VALID,921.106,VALID,0,VALID,95.6908,VALID,0.0339617,VALID,18.2024,VALID,246,VALID,0,
2004-06-23, 00:32:00,VALID,921.08,VALID,0,VALID,96.0023,VALID,0.0169808,VALID,18.2056,VALID,221,VALID,0.287246,
2004-06-23, 00:33:00,VALID,921.066,VALID,0,VALID,96.4715,VALID,0,VALID,18.2347,VALID,168,VALID,0.303354,
2004-06-23, 00:34:00,VALID,921.072,VALID,0,VALID,95.453,VALID,0.0169808,VALID,18.2153,VALID,152,VALID,0.413504,
2004-06-23, 00:35:00,VALID,921.061,VALID,0,VALID,95.2597,VALID,0.0169808,VALID,18.1475,VALID,131,VALID,0.24349,
2004-06-23, 00:36:00,VALID,921.038,VALID,0,VALID,95.4466,VALID,0.0339617,VALID,18.0378,VALID,131,VALID,0.276278,
2004-06-23, 00:37:00,VALID,921.021,VALID,0,VALID,96.4398,VALID,0.0339617,VALID,18.0184,VALID,131,VALID,0.114281,
2004-06-23, 00:38:00,VALID,921.012,VALID,0,VALID,95.8714,VALID,0.0169808,VALID,17.9668,VALID,131,VALID,0,
2004-06-23, 00:39:00,VALID,921.003,VALID,0,VALID,96.0735,VALID,0.0169808,VALID,17.8988,VALID,104,VALID,0.208891,
2004-06-23, 00:40:00,VALID,920.997,VALID,0,VALID,96.1511,VALID,0,VALID,17.8509,VALID,31,VALID,0.487038,
2004-06-23, 00:41:00,VALID,920.983,VALID,0,VALID,96.3329,VALID,0,VALID,17.7766,VALID,14,VALID,0.815044,
2004-06-23, 00:42:00,VALID,920.957,VALID,0,VALID,97.4329,VALID,0.0509425,VALID,17.7889,VALID,4,VALID,0.942595,
2004-06-23, 00:43:00,VALID,920.93,VALID,0,VALID,97.5537,VALID,0.0339617,VALID,17.867,VALID,4,VALID,0.98056,
2004-06-23, 00:44:00,VALID,920.876,VALID,0,VALID,97.4202,VALID,0,VALID,17.9279,VALID,4,VALID,0.868331,
2004-06-23, 00:45:00,VALID,920.825,VALID,0,VALID,97.0578,VALID,0,VALID,18.0088,VALID,4,VALID,0.821911,
2004-06-23, 00:46:00,VALID,920.79,VALID,0,VALID,96.1486,VALID,0.0679233,VALID,18.0279,VALID,4,VALID,0.77832,
2004-06-23, 00:47:00,VALID,920.75,VALID,0,VALID,95.7747,VALID,0,VALID,18.0249,VALID,4,VALID,0.564918,
2004-06-23, 00:48:00,VALID,920.718,VALID,0,VALID,95.5217,VALID,0,VALID,18.0051,VALID,4,VALID,0.487282,
2004-06-23, 00:49:00,VALID,920.699,VALID,0,VALID,95.7505,VALID,0,VALID,18.035,VALID,4,VALID,0.316493,
2004-06-23, 00:50:00,VALID,920.685,VALID,0,VALID,96.5364,VALID,0,VALID,18.1351,VALID,4,VALID,0.333147,
2004-06-23, 00:51:00,VALID,920.68,VALID,0,VALID,96.6547,VALID,0.0169808,VALID,18.2347,VALID,4,VALID,0.396354,
2004-06-23, 00:52:00,VALID,920.69,VALID,0,VALID,96.6432,VALID,0.0339617,VALID,18.3121,VALID,357,VALID,0.483789,
2004-06-23, 00:53:00,VALID,920.717,VALID,0,VALID,96.4385,VALID,0,VALID,18.364,VALID,357,VALID,0.155523,
2004-06-23, 00:54:00,VALID,920.749,VALID,0,VALID,96.3329,VALID,0.0339617,VALID,18.4085,VALID,311,VALID,0.603472,
2004-06-23, 00:55:00,VALID,920.771,VALID,0,VALID,95.6526,VALID,0.0169808,VALID,18.4707,VALID,286,VALID,0.152253,
2004-06-23, 00:56:00,VALID,920.776,VALID,0,VALID,95.1796,VALID,0.0339617,VALID,18.4345,VALID,286,VALID,0,
2004-06-23, 00:57:00,VALID,920.779,VALID,0,VALID,94.7384,VALID,0.0169808,VALID,18.3933,VALID,286,VALID,0,
2004-06-23, 00:58:00,VALID,920.749,VALID,0,VALID,94.896,VALID,0,VALID,18.3571,VALID,286,VALID,0.0126488,
2004-06-23, 00:59:00,VALID,920.704,VALID,0,VALID,94.5413,VALID,0,VALID,18.287,VALID,286,VALID,0.373365,
2004-06-23, 01:00:00,VALID,920.662,VALID,0,VALID,95.364,VALID,0,VALID,18.2222,VALID,286,VALID,0.145531,
2004-06-23, 01:01:00,VALID,920.634,VALID,0,VALID,95.8014,VALID,0,VALID,18.183,VALID,286,VALID,0,
2004-06-23, 01:02:00,VALID,920.584,VALID,0,VALID,95.4326,VALID,0,VALID,18.115,VALID,286,VALID,0,
2004-06-23, 01:03:00,VALID,920.551,VALID,0,VALID,95.6145,VALID,0,VALID,18.0864,VALID,286,VALID,0,
2004-06-23, 01:04:00,VALID,920.532,VALID,0,VALID,95.5827,VALID,0,VALID,18.0514,VALID,286,VALID,0.126302,
2004-06-23, 01:05:00,VALID,920.509,VALID,0,VALID,94.9571,VALID,0,VALID,17.9606,VALID,288,VALID,0.269618,
2004-06-23, 01:06:00,VALID,920.495,VALID,0,VALID,94.9329,VALID,-0.0849042,VALID,17.852,VALID,343,VALID,0.454578,
2004-06-23, 01:07:00,VALID,920.485,VALID,0,VALID,95.4238,VALID,-0.101885,VALID,17.8105,VALID,343,VALID,0.410252,
2004-06-23, 01:08:00,VALID,920.492,VALID,0,VALID,95.8803,VALID,-0.101885,VALID,17.7973,VALID,343,VALID,0.310594,
2004-06-23, 01:09:00,VALID,920.497,VALID,0,VALID,96.7755,VALID,-0.0849042,VALID,17.8328,VALID,343,VALID,0.488368,
2004-06-23, 01:10:00,VALID,920.489,VALID,0,VALID,96.4614,VALID,-0.0849042,VALID,17.8363,VALID,346,VALID,0.688262,
2004-06-23, 01:11:00,VALID,920.456,VALID,0,VALID,96.5199,VALID,-0.118866,VALID,17.7879,VALID,5,VALID,1.04215,
2004-06-23, 01:12:00,VALID,920.431,VALID,0,VALID,97.0781,VALID,-0.0849042,VALID,17.8296,VALID,7,VALID,0.97745,
2004-06-23, 01:13:00,VALID,920.414,VALID,0,VALID,96.5008,VALID,-0.101885,VALID,17.8236,VALID,8,VALID,0.975632,
2004-06-23, 01:14:00,VALID,920.392,VALID,0,VALID,96.0977,VALID,-0.101885,VALID,17.8075,VALID,8,VALID,0.737038,
2004-06-23, 01:15:00,VALID,920.355,VALID,0,VALID,96.3686,VALID,-0.118866,VALID,17.8428,VALID,7,VALID,0.729297,
2004-06-23, 01:16:00,VALID,920.33,VALID,0,VALID,95.9311,VALID,-0.101885,VALID,17.8554,VALID,7,VALID,0.742543,
2004-06-23, 01:17:00,VALID,920.303,VALID,0,VALID,95.8027,VALID,-0.101885,VALID,17.8527,VALID,7,VALID,0.55221,
2004-06-23, 01:18:00,VALID,920.307,VALID,0,VALID,95.809,VALID,-0.0849042,VALID,17.8619,VALID,7,VALID,0.306974,
2004-06-23, 01:19:00,VALID,920.332,VALID,0,VALID,95.7976,VALID,-0.0849042,VALID,17.8623,VALID,7,VALID,0.0472384,
2004-06-23, 01:20:00,VALID,920.345,VALID,0,VALID,96.0392,VALID,-0.0849042,VALID,17.8683,VALID,352,VALID,0.470238,
2004-06-23, 01:21:00,VALID,920.322,VALID,0,VALID,96.1206,VALID,-0.0849042,VALID,17.8873,VALID,341,VALID,0.392299,
2004-06-23, 01:22:00,VALID,920.295,VALID,0,VALID,95.8904,VALID,-0.0169808,VALID,17.9202,VALID,318,VALID,0.667289,
2004-06-23, 01:23:00,VALID,920.266,VALID,0,VALID,95.0779,VALID,-0.0169808,VALID,17.9746,VALID,17,VALID,0.517535,
2004-06-23, 01:24:00,VALID,920.25,VALID,0,VALID,94.5794,VALID,-0.0339617,VALID,17.9198,VALID,11,VALID,0.892485,
2004-06-23, 01:25:00,VALID,920.233,VALID,0,VALID,95.0435,VALID,-0.0339617,VALID,17.8843,VALID,14,VALID,0.691315,
2004-06-23, 01:26:00,VALID,920.23,VALID,0,VALID,95.411,VALID,-0.0679233,VALID,17.8683,VALID,17,VALID,0.726563,
2004-06-23, 01:27:00,VALID,920.216,VALID,0,VALID,95.6081,VALID,-0.0509425,VALID,17.872,VALID,17,VALID,0.74375,
2004-06-23, 01:28:00,VALID,920.2,VALID,0,VALID,95.6666,VALID,-0.0679233,VALID,17.8589,VALID,16,VALID,0.46875,
2004-06-23, 01:29:00,VALID,920.159,VALID,0,VALID,95.8853,VALID,-0.0679233,VALID,17.8492,VALID,16,VALID,0.206771,
2004-06-23, 01:30:00,VALID,920.11,VALID,0,VALID,96.2821,VALID,-0.0509425,VALID,17.8981,VALID,360,VALID,0.447359,
2004-06-23, 01:31:00,VALID,920.063,VALID,0,VALID,96.2147,VALID,-0.0679233,VALID,17.9138,VALID,349,VALID,0.377232,
2004-06-23, 01:32:00,VALID,920.035,VALID,0,VALID,96.0621,VALID,-0.0679233,VALID,17.9168,VALID,349,VALID,0.537109,
2004-06-23, 01:33:00,VALID,920.008,VALID,0,VALID,96.0392,VALID,-0.0509425,VALID,17.9333,VALID,349,VALID,0.272321,
2004-06-23, 01:34:00,VALID,919.973,VALID,0,VALID,95.8294,VALID,-0.0509425,VALID,17.9271,VALID,349,VALID,0.264623,
2004-06-23, 01:35:00,VALID,919.942,VALID,0,VALID,95.5547,VALID,-0.0509425,VALID,17.9006,VALID,5,VALID,0.558854,
2004-06-23, 01:36:00,VALID,919.927,VALID,0,VALID,95.13,VALID,-0.0509425,VALID,17.8397,VALID,34,VALID,0.776486,
2004-06-23, 01:37:00,VALID,919.918,VALID,0,VALID,95.083,VALID,-0.0849042,VALID,17.7948,VALID,39,VALID,0.636083,
2004-06-23, 01:38:00,VALID,919.908,VALID,0,VALID,95.5573,VALID,-0.0849042,VALID,17.7464,VALID,28,VALID,0.639509,
2004-06-23, 01:39:00,VALID,919.904,VALID,0,VALID,95.4276,VALID,-0.0849042,VALID,17.6719,VALID,20,VALID,0.532138,
2004-06-23, 01:40:00,VALID,919.886,VALID,0,VALID,96.7869,VALID,-0.101885,VALID,17.7065,VALID,4,VALID,0.913154,
2004-06-23, 01:41:00,VALID,919.865,VALID,0,VALID,97.3502,VALID,-0.0339617,VALID,17.8294,VALID,350,VALID,0.818677,
2004-06-23, 01:42:00,VALID,919.853,VALID,0,VALID,96.7945,VALID,-0.0339617,VALID,17.9013,VALID,355,VALID,0.641006,
2004-06-23, 01:43:00,VALID,919.84,VALID,0,VALID,96.6483,VALID,-0.0169808,VALID,17.917,VALID,4,VALID,0.87173,
2004-06-23, 01:44:00,VALID,919.822,VALID,0,VALID,96.4525,VALID,-0.0339617,VALID,17.9327,VALID,15,VALID,0.625953,
2004-06-23, 01:45:00,VALID,919.815,VALID,0,VALID,96.3126,VALID,-0.0339617,VALID,17.952,VALID,13,VALID,0.462536,
2004-06-23, 01:46:00,VALID,919.788,VALID,0,VALID,96.2681,VALID,-0.0679233,VALID,17.9617,VALID,12,VALID,0.781822,
2004-06-23, 01:47:00,VALID,919.759,VALID,0,VALID,95.7989,VALID,-0.0679233,VALID,17.9359,VALID,360,VALID,0.769271,
2004-06-23, 01:48:00,VALID,919.707,VALID,0,VALID,95.9731,VALID,-0.0849042,VALID,17.9396,VALID,360,VALID,0.812872,
2004-06-23, 01:49:00,VALID,919.679,VALID,0,VALID,96.3584,VALID,-0.0509425,VALID,17.949,VALID,349,VALID,0.84048,
2004-06-23, 01:50:00,VALID,919.656,VALID,0,VALID,96.5987,VALID,-0.0509425,VALID,18.0041,VALID,340,VALID,1.08365,
2004-06-23, 01:51:00,VALID,919.666,VALID,0,VALID,96.4385,VALID,-0.0679233,VALID,18.0459,VALID,345,VALID,0.378815,
2004-06-23, 01:52:00,VALID,919.655,VALID,0,VALID,96.0837,VALID,-0.0509425,VALID,18.0624,VALID,301,VALID,0.542225,
2004-06-23, 01:53:00,VALID,919.666,VALID,0,VALID,96.5669,VALID,-0.0679233,VALID,18.1007,VALID,323,VALID,0.452035,
2004-06-23, 01:54:00,VALID,919.675,VALID,0,VALID,96.4677,VALID,0,VALID,18.1136,VALID,7,VALID,1.0123,
2004-06-23, 01:55:00,VALID,919.702,VALID,0,VALID,96.0138,VALID,-0.0509425,VALID,18.1425,VALID,17,VALID,0.693182,
2004-06-23, 01:56:00,VALID,919.742,VALID,0,VALID,95.8866,VALID,-0.0169808,VALID,18.1517,VALID,358,VALID,0.125545,
2004-06-23, 01:57:00,VALID,919.756,VALID,0,VALID,95.659,VALID,-0.0339617,VALID,18.1715,VALID,339,VALID,0.172061,
2004-06-23, 01:58:00,VALID,919.756,VALID,0,VALID,95.8955,VALID,0,VALID,18.1777,VALID,241,VALID,0.555246,
2004-06-23, 01:59:00,VALID,919.757,VALID,0,VALID,96.235,VALID,-0.0509425,VALID,18.175,VALID,241,VALID,0.306212,
2004-06-23, 02:00:00,VALID,919.773,VALID,0,VALID,96.8378,VALID,-0.0509425,VALID,18.1911,VALID,241,VALID,0.139737,
2004-06-23, 02:01:00,VALID,919.788,VALID,0,VALID,97.045,VALID,-0.0339617,VALID,18.2167,VALID,241,VALID,0,
2004-06-23, 02:02:00,VALID,919.8,VALID,0,VALID,96.6623,VALID,-0.0509425,VALID,18.1549,VALID,241,VALID,0.196911,
2004-06-23, 02:03:00,VALID,919.811,VALID,0,VALID,97.1773,VALID,-0.0169808,VALID,18.1842,VALID,253,VALID,0.537891,
2004-06-23, 02:04:00,VALID,919.834,VALID,0,VALID,97.4621,VALID,-0.0339617,VALID,18.2365,VALID,259,VALID,0.271257,
2004-06-23, 02:05:00,VALID,919.865,VALID,0,VALID,96.7132,VALID,-0.0169808,VALID,18.21,VALID,260,VALID,0.300595,
2004-06-23, 02:06:00,VALID,919.888,VALID,0,VALID,96.5186,VALID,-0.0169808,VALID,18.1514,VALID,347,VALID,0.656994,
2004-06-23, 02:07:00,VALID,919.918,VALID,0,VALID,96.483,VALID,-0.0169808,VALID,18.1517,VALID,7,VALID,0.968359,
2004-06-23, 02:08:00,VALID,919.954,VALID,0,VALID,96.1435,VALID,0,VALID,18.1035,VALID,355,VALID,0.770419,
2004-06-23, 02:09:00,VALID,919.987,VALID,0,VALID,96.3215,VALID,-0.0169808,VALID,18.0486,VALID,3,VALID,0.834604,
2004-06-23, 02:10:00,VALID,920.023,VALID,0,VALID,97.1264,VALID,-0.0339617,VALID,18.0747,VALID,10,VALID,1.11612,
2004-06-23, 02:11:00,VALID,920.041,VALID,0,VALID,97.2638,VALID,-0.0679233,VALID,18.1717,VALID,11,VALID,0.732887,
2004-06-23, 02:12:00,VALID,920.037,VALID,0,VALID,97.0044,VALID,-0.0509425,VALID,18.2231,VALID,18,VALID,0.240916,
2004-06-23, 02:13:00,VALID,920.005,VALID,0,VALID,96.6432,VALID,-0.0509425,VALID,18.2619,VALID,22,VALID,0.381177,
2004-06-23, 02:14:00,VALID,919.98,VALID,0,VALID,96.2605,VALID,-0.0509425,VALID,18.2748,VALID,30,VALID,0.726732,
2004-06-23, 02:15:00,VALID,919.957,VALID,0,VALID,96.146,VALID,-0.0169808,VALID,18.2713,VALID,24,VALID,0.817894,
2004-06-23, 02:16:00,VALID,919.93,VALID,0,VALID,96.305,VALID,-0.0339617,VALID,18.329,VALID,15,VALID,0.908296,
2004-06-23, 02:17:00,VALID,919.905,VALID,0,VALID,96.0201,VALID,-0.0339617,VALID,18.3585,VALID,14,VALID,0.905488,
2004-06-23, 02:18:00,VALID,919.873,VALID,0,VALID,96.2071,VALID,0,VALID,18.3742,VALID,14,VALID,0.890997,
2004-06-23, 02:19:00,VALID,919.839,VALID,0,VALID,96.1104,VALID,0,VALID,18.4198,VALID,14,VALID,0.969308,
2004-06-23, 02:20:00,VALID,919.815,VALID,0,VALID,95.8777,VALID,-0.0679233,VALID,18.4295,VALID,17,VALID,1.0109,
2004-06-23, 02:21:00,VALID,919.798,VALID,0,VALID,95.7951,VALID,-0.0679233,VALID,18.4682,VALID,27,VALID,0.700521,
2004-06-23, 02:22:00,VALID,919.801,VALID,0,VALID,95.6984,VALID,-0.0849042,VALID,18.5166,VALID,31,VALID,0.349888,
2004-06-23, 02:23:00,VALID,919.8,VALID,0,VALID,95.3754,VALID,-0.0509425,VALID,18.5422,VALID,31,VALID,0.202083,
2004-06-23, 02:24:00,VALID,919.784,VALID,0,VALID,95.0957,VALID,-0.0849042,VALID,18.5646,VALID,31,VALID,0.12168,
2004-06-23, 02:25:00,VALID,919.784,VALID,0,VALID,95.0041,VALID,-0.0509425,VALID,18.5743,VALID,31,VALID,0.273438,
2004-06-23, 02:26:00,VALID,919.778,VALID,0,VALID,94.8388,VALID,-0.0509425,VALID,18.6107,VALID,31,VALID,0.075218,
2004-06-23, 02:27:00,VALID,919.764,VALID,0,VALID,94.5883,VALID,-0.0849042,VALID,18.6033,VALID,31,VALID,0.0460938,
2004-06-23, 02:28:00,VALID,919.765,VALID,0,VALID,94.4255,VALID,-0.0849042,VALID,18.5973,VALID,31,VALID,0.342014,
2004-06-23, 02:29:00,VALID,919.746,VALID,0,VALID,94.4205,VALID,-0.0849042,VALID,18.5784,VALID,31,VALID,0.388445,
2004-06-23, 02:30:00,VALID,919.754,VALID,0,VALID,94.5896,VALID,-0.0679233,VALID,18.5588,VALID,43,VALID,0.449479,
2004-06-23, 02:31:00,VALID,919.743,VALID,0,VALID,94.2933,VALID,-0.0509425,VALID,18.5266,VALID,53,VALID,0.303779,
2004-06-23, 02:32:00,VALID,919.73,VALID,0,VALID,94.4166,VALID,-0.0679233,VALID,18.4774,VALID,53,VALID,0.200347,
2004-06-23, 02:33:00,VALID,919.711,VALID,0,VALID,94.7104,VALID,-0.0509425,VALID,18.4422,VALID,53,VALID,0.20293,
2004-06-23, 02:34:00,VALID,919.691,VALID,0,VALID,94.6392,VALID,-0.0339617,VALID,18.4166,VALID,53,VALID,0.0981105,
2004-06-23, 02:35:00,VALID,919.675,VALID,0,VALID,94.5616,VALID,-0.0169808,VALID,18.3578,VALID,53,VALID,0,
2004-06-23, 02:36:00,VALID,919.68,VALID,0,VALID,94.6481,VALID,0.0169808,VALID,18.302,VALID,53,VALID,0,
2004-06-23, 02:37:00,VALID,919.678,VALID,0,VALID,95.0702,VALID,0.0509425,VALID,18.2663,VALID,53,VALID,0,
2004-06-23, 02:38:00,VALID,919.688,VALID,0,VALID,95.4492,VALID,0.0679233,VALID,18.2729,VALID,53,VALID,0.0348837,
2004-06-23, 02:39:00,VALID,919.724,VALID,0,VALID,95.2686,VALID,0.0679233,VALID,18.2663,VALID,53,VALID,0.24272,
2004-06-23, 02:40:00,VALID,919.757,VALID,0,VALID,95.2394,VALID,0.0509425,VALID,18.2275,VALID,53,VALID,0.297585,
2004-06-23, 02:41:00,VALID,919.781,VALID,0,VALID,95.2686,VALID,0.0339617,VALID,18.1955,VALID,53,VALID,0.0900298,
2004-06-23, 02:42:00,VALID,919.777,VALID,0,VALID,95.2254,VALID,0.0509425,VALID,18.1664,VALID,53,VALID,0,
2004-06-23, 02:43:00,VALID,919.765,VALID,0,VALID,95.3665,VALID,0.0339617,VALID,18.1309,VALID,53,VALID,0,
2004-06-23, 02:44:00,VALID,919.733,VALID,0,VALID,95.9248,VALID,0.0679233,VALID,18.1469,VALID,53,VALID,0,
2004-06-23, 02:45:00,VALID,919.714,VALID,0,VALID,95.9235,VALID,0.0679233,VALID,18.1662,VALID,53,VALID,0,
2004-06-23, 02:46:00,VALID,919.678,VALID,0,VALID,96.216,VALID,0.0849042,VALID,18.2144,VALID,53,VALID,0.0275298,
2004-06-23, 02:47:00,VALID,919.657,VALID,0,VALID,96.3139,VALID,0.101885,VALID,18.2953,VALID,53,VALID,0.0987216,
2004-06-23, 02:48:00,VALID,919.648,VALID,0,VALID,95.2762,VALID,0.0849042,VALID,18.2985,VALID,53,VALID,0.324041,
2004-06-23, 02:49:00,VALID,919.664,VALID,0,VALID,94.2348,VALID,0.0679233,VALID,18.1568,VALID,53,VALID,0.170015,
2004-06-23, 02:50:00,VALID,919.676,VALID,0,VALID,95.1364,VALID,0.0679233,VALID,18.0659,VALID,53,VALID,0.003125,
2004-06-23, 02:51:00,VALID,919.692,VALID,0,VALID,95.6908,VALID,0.0169808,VALID,18.0401,VALID,53,VALID,0,
2004-06-23, 02:52:00,VALID,919.705,VALID,0,VALID,96.1358,VALID,0.0849042,VALID,18.0337,VALID,53,VALID,0,
2004-06-23, 02:53:00,VALID,919.717,VALID,0,VALID,96.4042,VALID,0.101885,VALID,18.0632,VALID,53,VALID,0,
2004-06-23, 02:54:00,VALID,919.744,VALID,0,VALID,96.4588,VALID,0.0509425,VALID,18.0731,VALID,53,VALID,0,
2004-06-23, 02:55:00,VALID,919.743,VALID,0,VALID,96.5415,VALID,0.0679233,VALID,18.0597,VALID,53,VALID,0.246875,
2004-06-23, 02:56:00,VALID,919.753,VALID,0,VALID,97.4036,VALID,0.0679233,VALID,18.1501,VALID,53,VALID,0.1492,
2004-06-23, 02:57:00,VALID,919.748,VALID,0,VALID,97.1379,VALID,0.101885,VALID,18.1722,VALID,53,VALID,0,
2004-06-23, 02:58:00,VALID,919.736,VALID,0,VALID,96.9637,VALID,0.0679233,VALID,18.1595,VALID,53,VALID,0.00104167,
2004-06-23, 02:59:00,VALID,919.721,VALID,0,VALID,97.0183,VALID,0.0679233,VALID,18.1888,VALID,53,VALID,0.128049,
2004-06-23, 03:00:00,VALID,919.717,VALID,0,VALID,96.7691,VALID,0.0849042,VALID,18.2149,VALID,25,VALID,0.374609,
2004-06-23, 03:01:00,VALID,919.731,VALID,0,VALID,96.1969,VALID,0.101885,VALID,18.1697,VALID,358,VALID,0.53853,
2004-06-23, 03:02:00,VALID,919.745,VALID,0,VALID,96.3507,VALID,0.0849042,VALID,18.1245,VALID,358,VALID,0.404978,
2004-06-23, 03:03:00,VALID,919.752,VALID,0,VALID,96.53,VALID,0.0339617,VALID,18.0729,VALID,358,VALID,0.0559593,
2004-06-23, 03:04:00,VALID,919.745,VALID,0,VALID,96.7653,VALID,0.0849042,VALID,18.0503,VALID,358,VALID,0,
2004-06-23, 03:05:00,VALID,919.741,VALID,0,VALID,97.0883,VALID,0.0679233,VALID,18.0765,VALID,358,VALID,0.0223214,
2004-06-23, 03:06:00,VALID,919.764,VALID,0,VALID,97.3922,VALID,-0.0169808,VALID,18.1026,VALID,358,VALID,0.0779345,
2004-06-23, 03:07:00,VALID,919.76,VALID,0,VALID,97.0984,VALID,-0.0509425,VALID,18.1164,VALID,358,VALID,0.19375,
2004-06-23, 03:08:00,VALID,919.774,VALID,0,VALID,97.3833,VALID,-0.0169808,VALID,18.1678,VALID,358,VALID,0.063244,
2004-06-23, 03:09:00,VALID,919.773,VALID,0,VALID,97.5257,VALID,-0.0339617,VALID,18.1936,VALID,358,VALID,0.0388808,
2004-06-23, 03:10:00,VALID,919.753,VALID,0,VALID,97.6796,VALID,-0.0509425,VALID,18.2285,VALID,358,VALID,0,
2004-06-23, 03:11:00,VALID,919.734,VALID,0,VALID,97.7203,VALID,-0.0679233,VALID,18.2743,VALID,358,VALID,0.141959,
2004-06-23, 03:12:00,VALID,919.699,VALID,0,VALID,97.7228,VALID,0,VALID,18.2999,VALID,358,VALID,0.346755,
2004-06-23, 03:13:00,VALID,919.691,VALID,0,VALID,97.5054,VALID,-0.0339617,VALID,18.2965,VALID,358,VALID,0.412202,
2004-06-23, 03:14:00,VALID,919.674,VALID,0,VALID,97.4952,VALID,-0.0509425,VALID,18.2967,VALID,358,VALID,0.607887,
2004-06-23, 03:15:00,VALID,919.668,VALID,0,VALID,97.5435,VALID,-0.0849042,VALID,18.2868,VALID,358,VALID,0.704613,
2004-06-23, 03:16:00,VALID,919.667,VALID,0,VALID,97.63,VALID,-0.0509425,VALID,18.2939,VALID,358,VALID,0.739901,
2004-06-23, 03:17:00,VALID,919.671,VALID,0,VALID,97.6936,VALID,-0.0509425,VALID,18.2776,VALID,358,VALID,0.728516,
2004-06-23, 03:18:00,VALID,919.686,VALID,0,VALID,97.8284,VALID,-0.0169808,VALID,18.2875,VALID,11,VALID,0.794331,
2004-06-23, 03:19:00,VALID,919.695,VALID,0,VALID,98.056,VALID,-0.0169808,VALID,18.3128,VALID,20,VALID,0.767805,
2004-06-23, 03:20:00,VALID,919.698,VALID,0,VALID,98.0878,VALID,-0.0169808,VALID,18.3488,VALID,16,VALID,0.826215,
2004-06-23, 03:21:00,VALID,919.703,VALID,0,VALID,97.7851,VALID,-0.0169808,VALID,18.3352,VALID,16,VALID,0.742188,
2004-06-23, 03:22:00,VALID,919.702,VALID,0,VALID,97.9085,VALID,0,VALID,18.3416,VALID,13,VALID,0.573864,
2004-06-23, 03:23:00,VALID,919.715,VALID,0,VALID,98.2798,VALID,0,VALID,18.4034,VALID,325,VALID,0.606707,
2004-06-23, 03:24:00,VALID,919.718,VALID,0,VALID,98.3917,VALID,0,VALID,18.4797,VALID,317,VALID,0.357846,
2004-06-23, 03:25:00,VALID,919.714,VALID,0,VALID,98.0572,VALID,0.0169808,VALID,18.4989,VALID,256,VALID,0.77782,
2004-06-23, 03:26:00,VALID,919.71,VALID,0,VALID,97.8004,VALID,-0.0339617,VALID,18.5415,VALID,236,VALID,0.794779,
2004-06-23, 03:27:00,VALID,919.71,VALID,0,VALID,97.4583,VALID,0.0169808,VALID,18.5547,VALID,221,VALID,0.514063,
2004-06-23, 03:28:00,VALID,919.694,VALID,0,VALID,97.2994,VALID,0,VALID,18.5805,VALID,219,VALID,0.358507,
2004-06-23, 03:29:00,VALID,919.671,VALID,0,VALID,96.9815,VALID,-0.0339617,VALID,18.5964,VALID,219,VALID,0.0279797,
2004-06-23, 03:30:00,VALID,919.65,VALID,0,VALID,96.043,VALID,0,VALID,18.5351,VALID,219,VALID,0,
2004-06-23, 03:31:00,VALID,919.629,VALID,0,VALID,95.3627,VALID,0,VALID,18.4253,VALID,219,VALID,0.0359003,
2004-06-23, 03:32:00,VALID,919.609,VALID,0,VALID,95.3894,VALID,0.0169808,VALID,18.3347,VALID,219,VALID,0.411458,
2004-06-23, 03:33:00,VALID,919.589,VALID,0,VALID,96.1867,VALID,0,VALID,18.2965,VALID,219,VALID,0.309028,